When you browse on this site, cookies collect data to enhance your experience and personalize the content and advertising you see.
Visit our Privacy Policy to learn more. By continuing to use the site, you agree to this use of cookies and data.
  • In Latvia
  • List of Countries
  • For 7 days
  • Water Temperature
  • Satellite Maps
  • Weather Map
  • Weather Widgets
  • user-avatar
    Login

    Hourly Weather Palecznica

    Today, 18 December, Tuesday

    Time Temperature Precipitation Wind Pressure Humidity
    00:00 -4°C° 0 mm 2 mps 747 mmHg 91%
    01:00 -3°C° 0 mm 2 mps 747 mmHg 90%
    02:00 -3°C° 0 mm 2 mps 747 mmHg 90%
    03:00 -2°C° 0 mm 2 mps 747 mmHg 90%
    04:00 0°C° 0 mm 1 mps 747 mmHg 90%
    05:00 0°C° 0 mm 1 mps 748 mmHg 90%
    06:00 -1°C° 0 mm 1 mps 748 mmHg 90%
    07:00 -1°C° 0 mm 1 mps 748 mmHg 90%
    08:00 0°C° 0 mm 1 mps 748 mmHg 89%
    09:00 0°C° 0 mm 1 mps 748 mmHg 88%
    10:00 0°C° 0 mm 0 mps 748 mmHg 87%
    11:00 +1°C° 0 mm 1 mps 748 mmHg 87%
    12:00 +2°C° 0 mm 1 mps 748 mmHg 88%
    13:00 +2°C° 0 mm 1 mps 748 mmHg 88%
    14:00 0°C° 0 mm 0 mps 748 mmHg 89%
    15:00 0°C° 0 mm 0 mps 748 mmHg 90%
    16:00 -1°C° 0 mm 0 mps 748 mmHg 90%
    17:00 0°C° 0 mm 1 mps 748 mmHg 90%
    18:00 0°C° 0 mm 1 mps 748 mmHg 90%
    19:00 0°C° 0 mm 1 mps 748 mmHg 90%
    20:00 -1°C° 0 mm 1 mps 748 mmHg 90%
    21:00 -1°C° 0 mm 1 mps 748 mmHg 91%
    22:00 -3°C° 0 mm 2 mps 748 mmHg 91%
    23:00 -3°C° 0 mm 2 mps 748 mmHg 92%

    Tomorrow, 19 December, Wednesday

    Time Temperature Precipitation Wind Pressure Humidity
    00:00 -4°C° 0 mm 2 mps 748 mmHg 92%
    01:00 -4°C° 0 mm 2 mps 748 mmHg 92%
    02:00 -4°C° 0 mm 2 mps 748 mmHg 92%
    03:00 -5°C° 0 mm 2 mps 748 mmHg 92%
    04:00 -5°C° 0 mm 2 mps 747 mmHg 92%
    05:00 -5°C° 0 mm 2 mps 747 mmHg 91%
    06:00 -5°C° 0 mm 2 mps 747 mmHg 91%
    07:00 -6°C° 0 mm 2 mps 747 mmHg 90%
    08:00 -6°C° 0 mm 3 mps 747 mmHg 87%
    09:00 -5°C° 0 mm 3 mps 747 mmHg 84%
    10:00 -4°C° 0 mm 3 mps 747 mmHg 82%
    11:00 -4°C° 0 mm 3 mps 747 mmHg 81%
    12:00 -2°C° 0 mm 3 mps 746 mmHg 80%
    13:00 -1°C° 0 mm 3 mps 746 mmHg 79%
    14:00 -2°C° 0 mm 3 mps 746 mmHg 82%
    15:00 -4°C° 0 mm 3 mps 745 mmHg 84%
    16:00 -4°C° 0 mm 2 mps 745 mmHg 87%
    17:00 -4°C° 0 mm 2 mps 745 mmHg 87%
    18:00 -4°C° 0 mm 2 mps 745 mmHg 87%
    19:00 -5°C° 0 mm 2 mps 745 mmHg 87%
    20:00 -5°C° 0 mm 2 mps 745 mmHg 87%
    21:00 -5°C° 0 mm 2 mps 744 mmHg 86%
    22:00 -5°C° 0 mm 2 mps 744 mmHg 86%
    23:00 -5°C° 0 mm 2 mps 744 mmHg 85%

    Day after tomorrow, 20 December, Thursday

    Time Temperature Precipitation Wind Pressure Humidity
    00:00 -5°C° 0 mm 2 mps 744 mmHg 85%
    01:00 -5°C° 0 mm 2 mps 744 mmHg 84%
    02:00 -5°C° 0 mm 2 mps 743 mmHg 83%
    03:00 -2°C° 0 mm 1 mps 743 mmHg 82%
    04:00 -2°C° 0 mm 1 mps 743 mmHg 81%
    05:00 -2°C° 0 mm 1 mps 743 mmHg 80%
    06:00 -2°C° 0 mm 1 mps 743 mmHg 80%
    07:00 -2°C° 0 mm 1 mps 743 mmHg 79%
    08:00 -1°C° 0 mm 1 mps 743 mmHg 79%
    09:00 -1°C° 0 mm 1 mps 743 mmHg 78%
    10:00 0°C° 0 mm 1 mps 743 mmHg 78%
    11:00 0°C° 0 mm 1 mps 743 mmHg 78%
    12:00 +1°C° 0 mm 1 mps 742 mmHg 78%
    13:00 +1°C° 0 mm 1 mps 742 mmHg 78%
    14:00 +1°C° 0 mm 1 mps 742 mmHg 80%
    15:00 0°C° 0 mm 1 mps 742 mmHg 81%
    16:00 0°C° 0 mm 1 mps 742 mmHg 83%
    17:00 0°C° 0 mm 1 mps 742 mmHg 83%
    18:00 -2°C° 0 mm 2 mps 742 mmHg 84%
    19:00 -2°C° 0 mm 2 mps 742 mmHg 84%
    20:00 -2°C° 0 mm 2 mps 742 mmHg 85%
    21:00 -2°C° 0 mm 2 mps 743 mmHg 86%
    22:00 -2°C° 0 mm 2 mps 743 mmHg 87%
    23:00 -2°C° 0.1 mm 2 mps 743 mmHg 88%

    21 December, Friday

    Time Temperature Precipitation Wind Pressure Humidity
    00:00 -2°C° 0.1 mm 3 mps 743 mmHg 89%
    01:00 -2°C° 0.1 mm 3 mps 742 mmHg 90%
    02:00 -2°C° 0.1 mm 3 mps 742 mmHg 90%
    03:00 -2°C° 0.1 mm 3 mps 742 mmHg 91%
    04:00 -1°C° 0.1 mm 3 mps 742 mmHg 92%
    05:00 -1°C° 0.1 mm 3 mps 742 mmHg 91%
    06:00 -1°C° 0.1 mm 3 mps 742 mmHg 91%
    07:00 -1°C° 0.1 mm 3 mps 742 mmHg 91%
    08:00 -1°C° 0 mm 3 mps 742 mmHg 91%
    09:00 0°C° 0 mm 3 mps 742 mmHg 90%
    10:00 0°C° 0 mm 3 mps 742 mmHg 89%
    11:00 +1°C° 0 mm 3 mps 742 mmHg 89%
    12:00 +1°C° 0 mm 3 mps 741 mmHg 89%
    13:00 +1°C° 0 mm 3 mps 741 mmHg 90%
    14:00 +1°C° 0 mm 3 mps 741 mmHg 89%
    15:00 0°C° 0 mm 3 mps 740 mmHg 89%
    16:00 0°C° 0 mm 3 mps 740 mmHg 88%
    17:00 0°C° 0.1 mm 3 mps 740 mmHg 88%
    18:00 -1°C° 0.1 mm 4 mps 739 mmHg 87%
    19:00 -1°C° 0.1 mm 4 mps 739 mmHg 87%
    20:00 0°C° 0.5 mm 4 mps 738 mmHg 87%
    21:00 0°C° 0.5 mm 5 mps 737 mmHg 86%
    22:00 0°C° 0.5 mm 5 mps 736 mmHg 86%
    23:00 +1°C° 1 mm 6 mps 736 mmHg 86%

    22 December, Saturday

    Time Temperature Precipitation Wind Pressure Humidity
    00:00 +1°C° 1 mm 6 mps 735 mmHg 85%
    01:00 +2°C° 1 mm 7 mps 735 mmHg 85%
    02:00 +2°C° 0.1 mm 7 mps 735 mmHg 86%
    03:00 +2°C° 0.1 mm 7 mps 735 mmHg 86%
    04:00 +2°C° 0.1 mm 7 mps 735 mmHg 87%
    05:00 +2°C° 0.1 mm 7 mps 735 mmHg 86%
    06:00 +2°C° 0.1 mm 7 mps 736 mmHg 86%
    07:00 +2°C° 0.1 mm 7 mps 736 mmHg 85%
    08:00 +2°C° 0 mm 7 mps 737 mmHg 85%
    09:00 +2°C° 0 mm 6 mps 737 mmHg 84%
    10:00 +2°C° 0 mm 6 mps 737 mmHg 84%
    11:00 +3°C° 0 mm 6 mps 737 mmHg 83%
    12:00 +3°C° 0 mm 6 mps 737 mmHg 83%
    13:00 +3°C° 0 mm 5 mps 737 mmHg 83%
    14:00 +3°C° 0.1 mm 6 mps 736 mmHg 84%
    15:00 +3°C° 0.1 mm 6 mps 736 mmHg 85%
    16:00 +3°C° 0.1 mm 6 mps 736 mmHg 87%
    17:00 +3°C° 0.4 mm 6 mps 736 mmHg 87%
    18:00 +3°C° 0.4 mm 6 mps 735 mmHg 88%
    19:00 +4°C° 0.4 mm 6 mps 735 mmHg 88%
    20:00 +3°C° 0.2 mm 6 mps 735 mmHg 89%
    21:00 +3°C° 0.2 mm 6 mps 735 mmHg 89%
    22:00 +3°C° 0.2 mm 6 mps 735 mmHg 90%
    23:00 +3°C° 0.1 mm 6 mps 735 mmHg 89%

    23 December, Sunday

    Time Temperature Precipitation Wind Pressure Humidity
    00:00 +3°C° 0.1 mm 6 mps 735 mmHg 88%
    01:00 +3°C° 0.1 mm 7 mps 736 mmHg 87%
    02:00 +3°C° 0.3 mm 7 mps 736 mmHg 86%
    03:00 +3°C° 0.3 mm 7 mps 736 mmHg 86%
    04:00 +3°C° 0.3 mm 7 mps 737 mmHg 85%
    05:00 +3°C° 0.1 mm 7 mps 737 mmHg 85%
    06:00 +2°C° 0.1 mm 7 mps 738 mmHg 86%
    07:00 +2°C° 0.1 mm 6 mps 739 mmHg 86%
    08:00 +2°C° 0 mm 6 mps 739 mmHg 84%
    09:00 +3°C° 0 mm 7 mps 739 mmHg 83%
    10:00 +3°C° 0 mm 7 mps 740 mmHg 81%
    11:00 +3°C° 0.1 mm 7 mps 740 mmHg 79%
    12:00 +3°C° 0.1 mm 7 mps 740 mmHg 77%
    13:00 +2°C° 0.1 mm 8 mps 740 mmHg 75%
    14:00 +3°C° 0.1 mm 7 mps 740 mmHg 77%
    15:00 +3°C° 0.1 mm 7 mps 740 mmHg 78%
    16:00 +2°C° 0.1 mm 7 mps 740 mmHg 79%
    17:00 +2°C° 0.2 mm 7 mps 741 mmHg 79%
    18:00 +2°C° 0.2 mm 7 mps 741 mmHg 80%
    19:00 +2°C° 0.2 mm 8 mps 741 mmHg 80%
    20:00 +3°C° 0.1 mm 7 mps 742 mmHg 81%
    21:00 +3°C° 0.1 mm 7 mps 742 mmHg 82%
    22:00 +3°C° 0.1 mm 7 mps 742 mmHg 83%
    23:00 +2°C° 0.1 mm 7 mps 743 mmHg 84%
    Show more